RH
19 16 14 12 12 12 12 12 12 12 13 13 13 13 13 13 13 14 16 16 18 20 20 21 20 17 17 18 22 25 25 27 26 24 28 32 31 31 29 32 39 41 42 43 44 47 50 51 53 54 55 56 57 58 60 65 67 66 66 66 66 66 65 65 65 66 69 69 69 69 66 65 66 64 62 62 63 66 69 71 71 72 75 75 75
32 29 25 21 18 15 12 12 12 12 13 13 13 13 13 13 13 13 14 15 17 19 19 19 20 19 17 15 17 20 21 21 22 22 26 29 29 28 28 33 38 40 40 40 41 43 45 46 49 51 54 55 56 56 57 62 66 67 65 64 66 67 66 65 65 65 68 69 71 70 67 67 70 70 69 69 70 71 73 73 74 76 77 75 73
41 41 39 37 32 27 21 16 14 13 12 12 12 13 13 13 14 13 13 14 15 17 18 18 19 20 18 15 15 17 19 19 19 21 24 27 28 27 28 33 37 38 38 38 39 40 41 43 46 49 52 54 55 56 55 57 63 66 65 64 65 66 68 67 65 64 65 67 69 67 64 64 68 71 74 74 74 75 75 75 76 77 75 72 71
42 43 44 45 44 41 37 31 25 20 16 15 14 13 13 13 14 14 14 14 15 16 18 18 18 19 19 17 15 15 16 17 17 19 23 26 26 26 28 32 35 37 37 37 38 39 40 41 45 49 51 52 54 55 54 56 61 64 65 66 66 67 69 69 68 65 63 65 68 68 65 63 64 68 72 74 75 75 75 77 77 76 75 74 73
41 42 43 45 46 46 46 45 41 35 29 23 20 17 15 15 15 15 15 15 15 16 17 18 18 19 20 19 16 14 15 15 16 17 21 25 26 26 27 30 34 36 37 38 38 38 39 41 44 48 50 52 52 53 53 55 59 61 62 64 66 67 68 70 72 70 65 64 66 68 68 67 67 69 71 73 74 74 74 76 77 77 77 77 76
40 41 42 43 44 45 47 48 48 47 42 37 32 26 22 19 18 17 17 16 17 17 17 18 18 19 20 21 18 15 14 15 15 16 19 24 25 26 26 29 32 35 37 38 38 38 38 40 43 46 49 51 52 51 52 54 57 59 61 62 62 64 66 69 73 74 71 67 65 67 71 72 73 74 73 73 73 73 73 74 75 75 73 72 74
38 39 41 42 42 43 44 45 47 49 48 44 39 33 28 24 21 20 20 19 19 20 20 20 20 20 21 22 21 18 15 14 14 15 18 23 25 25 26 27 30 33 36 38 38 37 37 39 41 44 47 50 51 49 49 51 54 57 61 61 60 62 65 68 72 76 75 71 67 66 69 73 76 77 77 76 74 71 71 72 76 76 68 63 67
36 38 40 41 39 38 41 43 45 46 48 45 40 36 31 28 25 22 21 21 21 22 22 22 22 23 23 24 24 21 17 14 14 13 16 21 25 25 25 26 28 30 34 37 38 37 36 38 40 42 45 48 49 48 48 49 50 53 59 61 60 62 66 68 72 77 77 75 71 68 67 71 76 76 77 79 77 73 71 70 74 77 73 69 70
34 35 38 39 36 35 37 41 43 44 45 42 37 35 35 33 31 27 23 22 23 23 23 23 23 24 25 25 25 23 18 13 13 13 14 18 24 25 25 26 27 28 31 34 37 37 35 37 38 40 43 46 47 46 46 46 45 47 53 58 60 64 68 69 72 76 77 76 74 71 69 69 73 75 76 76 75 75 75 72 72 76 77 76 76
33 34 35 36 35 34 35 38 40 41 41 38 33 34 36 36 35 31 26 24 24 25 24 23 22 22 22 22 22 21 18 13 12 12 13 15 21 25 26 26 26 27 28 31 35 37 36 36 38 39 41 44 46 45 45 44 42 41 46 53 60 67 71 71 73 75 77 76 74 73 71 69 73 76 75 74 73 73 75 75 73 72 70 70 69
32 33 33 33 34 32 31 32 35 36 36 35 33 33 36 38 36 34 31 26 25 25 23 22 21 19 18 18 18 18 16 13 11 12 13 14 17 23 26 26 27 27 27 28 31 35 35 35 36 37 40 43 45 45 44 43 40 37 42 51 60 68 71 72 74 76 78 78 75 74 72 71 74 75 73 74 74 70 71 71 68 66 65 62 60
31 32 32 32 31 30 29 30 32 32 32 33 33 34 38 40 39 38 36 31 27 26 24 22 21 20 18 16 15 14 14 12 9 11 14 14 15 19 24 27 27 26 25 25 28 32 35 35 35 36 38 42 45 45 44 43 38 35 40 50 59 65 67 69 73 78 81 83 80 77 74 73 74 74 73 75 74 70 69 68 64 63 60 53 48
30 31 30 28 26 27 29 30 31 32 32 33 34 36 40 42 40 38 39 38 35 31 27 26 24 22 20 17 14 13 12 10 8 9 13 15 14 16 21 25 27 27 26 25 26 30 33 34 35 36 37 40 44 44 44 43 37 34 40 50 56 61 63 65 71 76 82 88 88 83 77 75 74 73 71 70 70 70 70 70 66 59 50 41 38
29 29 27 24 22 25 28 30 32 33 34 35 36 37 39 41 40 39 40 41 40 36 32 30 26 24 21 19 16 12 10 9 7 7 11 15 16 15 18 22 25 27 27 26 27 29 32 34 35 35 37 39 43 44 43 42 36 33 41 50 55 57 58 60 66 70 75 85 93 91 84 79 76 75 70 65 63 64 65 64 59 47 37 34 34
28 28 26 24 22 24 27 29 32 34 35 36 36 36 36 37 38 38 39 39 38 37 36 34 30 27 25 22 19 15 11 8 6 6 9 13 16 16 17 19 22 25 27 28 29 30 32 33 35 35 36 39 42 43 42 39 34 33 41 51 54 54 52 53 59 65 71 79 88 93 91 86 82 78 72 65 60 57 54 52 49 43 37 36 35
26 27 27 26 24 24 26 29 32 33 34 33 32 32 32 32 33 35 36 37 37 37 36 35 34 32 30 27 24 20 15 11 8 6 6 11 16 18 17 18 19 22 25 27 30 32 33 34 35 35 36 38 41 42 40 37 33 32 41 51 54 53 51 51 56 62 68 72 80 89 91 86 82 78 72 63 56 51 49 48 47 42 37 36 33
23 25 26 26 26 26 26 28 30 31 31 30 28 28 29 30 32 34 35 36 36 35 34 36 37 35 33 31 28 25 21 16 12 8 6 9 15 18 19 19 20 21 23 25 28 30 32 34 35 35 36 37 40 40 38 34 31 32 39 49 55 54 52 54 56 59 64 70 77 87 90 84 80 77 68 56 45 42 46 47 43 37 32 30 25
20 23 25 26 26 26 27 27 28 28 29 29 28 28 30 32 34 35 36 37 36 36 38 40 38 36 35 35 33 31 28 23 18 13 8 7 11 17 19 20 20 22 23 24 26 28 30 33 35 35 36 37 39 39 35 32 31 32 36 46 55 56 55 57 55 52 61 74 82 89 93 86 80 74 61 45 36 37 42 41 35 31 28 24 19
20 22 23 25 25 25 26 26 27 28 28 29 29 30 32 34 36 37 38 40 41 42 45 44 41 38 38 38 38 36 34 30 24 19 13 8 8 13 18 19 20 22 23 23 25 26 28 31 32 34 36 37 38 38 33 30 32 32 33 41 52 56 57 59 52 43 56 78 87 93 97 90 80 71 54 37 31 33 34 31 30 29 26 21 18
20 21 22 22 23 24 24 25 26 26 27 28 30 32 33 34 36 37 38 39 42 44 46 46 45 44 42 41 41 39 37 34 30 25 21 16 10 9 14 18 19 20 22 23 24 25 27 29 31 33 36 37 38 37 32 31 33 32 30 36 49 56 57 56 48 39 50 72 84 93 99 92 80 67 46 31 29 31 29 28 29 28 23 18 16
19 19 20 21 21 22 22 23 24 25 26 27 29 30 32 32 34 35 36 38 39 41 43 45 45 45 45 43 41 36 34 35 35 31 27 23 18 12 11 13 17 20 20 21 22 23 24 26 28 32 35 36 36 34 32 32 34 32 29 35 50 59 56 51 46 41 44 58 75 90 96 90 79 60 39 28 30 30 28 29 30 26 18 14 14
17 17 18 19 20 21 21 21 22 23 24 26 27 28 30 30 31 33 33 34 35 36 39 42 42 42 41 40 39 34 31 31 34 34 31 29 27 22 15 11 13 17 20 21 21 22 23 24 26 28 31 32 32 32 33 35 36 31 29 39 55 62 56 50 46 40 38 51 74 90 91 85 75 54 34 29 32 30 29 31 30 23 14 10 11
15 15 15 16 17 18 19 20 21 21 22 24 25 27 29 29 29 28 28 30 31 32 34 35 35 35 34 33 33 31 29 28 28 29 31 32 32 30 27 23 17 14 15 18 20 21 23 25 25 25 27 30 32 33 35 38 36 30 31 46 61 62 55 50 47 40 37 52 77 91 87 78 67 49 34 31 33 30 31 33 28 18 10 9 10
15 15 14 13 14 14 15 17 19 21 22 23 25 27 28 28 27 23 23 25 27 28 29 29 29 29 29 29 28 27 28 28 24 22 25 31 35 35 36 39 35 25 16 13 15 19 22 25 25 24 26 30 35 38 40 39 36 35 42 57 66 62 53 49 48 43 39 51 73 84 77 65 54 42 34 33 33 32 33 33 25 13 8 9 9
13 16 17 17 17 16 17 18 19 21 22 23 25 27 27 27 25 21 19 21 23 25 26 25 26 26 25 25 26 26 27 28 25 21 20 25 32 37 42 47 48 42 31 21 17 17 17 18 21 23 25 30 34 38 41 39 35 40 53 65 67 60 53 51 51 44 41 52 68 70 60 48 40 36 35 35 34 34 36 33 21 10 7 8 8
11 14 15 17 18 18 21 22 22 22 23 23 25 27 27 27 23 20 19 20 22 24 25 24 24 23 22 22 22 22 24 26 23 19 19 24 27 32 39 46 51 55 55 50 46 42 36 27 20 17 20 25 28 32 35 35 36 48 62 69 66 57 52 53 51 45 48 60 66 60 50 41 35 34 36 36 36 37 38 32 18 8 6 7 7
11 12 12 13 14 16 20 23 25 26 26 26 27 27 27 26 22 20 22 22 22 24 24 24 24 23 21 21 21 23 25 25 21 17 18 22 23 24 33 44 57 68 71 68 70 70 62 50 36 28 26 23 22 27 31 31 38 50 58 63 63 57 52 53 51 50 56 63 65 61 55 43 34 35 38 38 38 39 38 29 15 6 6 7 7
13 13 13 14 14 16 17 21 27 29 28 28 29 28 28 26 24 23 23 22 22 23 23 23 24 25 25 24 24 25 25 24 23 19 18 20 25 31 37 45 56 67 68 69 76 80 74 65 56 51 48 37 27 28 29 28 34 43 47 57 64 59 53 53 52 55 62 66 67 66 57 41 34 38 40 39 40 42 38 25 12 6 7 8 7
18 16 16 16 16 18 18 21 26 29 29 29 29 28 27 26 24 23 22 22 23 23 24 25 26 27 29 29 28 28 27 27 26 24 23 25 29 34 38 41 48 57 64 75 89 93 86 78 69 64 62 52 41 39 35 31 35 40 47 61 69 62 57 58 57 60 65 67 68 64 50 37 36 40 41 42 44 43 36 21 9 6 8 8 7
21 20 20 19 19 19 20 20 22 24 26 27 27 27 27 25 23 23 22 22 23 23 23 25 24 24 25 24 24 25 26 27 29 29 29 31 31 32 34 35 40 49 61 80 95 92 82 76 72 71 69 59 50 48 42 39 45 48 49 60 67 63 61 63 62 64 68 70 69 59 42 35 40 42 43 46 46 43 33 17 7 7 9 8 7
21 20 20 19 19 19 18 18 18 18 19 20 21 22 22 22 22 21 20 20 20 20 20 20 19 19 19 17 17 19 19 20 23 24 25 28 32 37 39 38 39 44 56 78 95 91 78 72 69 69 69 62 56 56 50 49 60 61 53 57 66 64 63 66 68 71 74 74 68 54 39 38 44 45 46 49 48 42 30 14 6 8 9 8 8
18 18 17 17 17 16 16 15 15 15 15 15 15 15 16 16 16 16 16 16 15 15 16 16 15 15 15 14 15 16 17 19 20 20 20 20 22 30 38 43 48 50 55 74 92 89 81 80 76 72 70 63 59 61 59 59 71 74 63 60 65 66 66 72 76 76 76 71 61 48 41 43 47 48 50 52 49 41 27 12 6 8 9 8 8
17 17 17 16 16 16 15 15 15 14 14 13 13 13 13 12 12 12 13 13 13 13 14 14 14 15 15 15 15 15 16 17 17 17 17 16 15 19 25 32 43 52 61 79 92 85 78 81 79 75 73 66 61 67 69 70 81 86 77 70 70 69 71 78 81 77 72 65 54 46 45 48 50 51 53 54 49 39 24 11 7 8 8 8 9
18 18 17 17 17 16 16 16 15 15 15 14 14 14 14 13 14 14 13 13 14 14 14 14 15 15 14 14 14 13 13 14 13 13 14 13 14 15 15 20 32 45 60 82 93 84 75 76 75 71 71 67 65 72 78 80 85 87 79 74 76 76 76 80 80 74 69 62 54 49 49 51 52 54 55 55 49 38 24 13 7 7 8 9 9
18 18 17 17 17 17 16 16 16 16 15 15 15 15 15 15 14 14 14 15 15 14 15 15 14 14 15 15 15 16 15 15 15 15 15 16 18 20 23 24 25 30 47 71 84 79 75 76 75 73 75 72 67 71 80 85 85 81 76 76 79 80 82 82 77 71 67 62 55 52 52 53 55 57 57 55 49 38 27 16 9 8 9 10 10
18 18 18 17 17 17 17 17 17 17 18 18 18 18 18 18 18 19 19 19 19 18 18 19 19 20 21 21 21 23 23 21 21 22 23 25 27 31 37 37 33 37 50 62 68 72 78 79 77 77 80 80 75 76 85 89 86 81 79 78 78 79 81 79 72 67 65 61 55 53 54 56 57 59 59 56 49 40 30 19 12 10 11 11 10
22 21 21 22 22 23 24 25 26 26 27 27 27 27 26 26 27 27 27 27 26 26 26 28 29 30 30 29 30 30 30 30 32 36 39 40 40 44 47 47 51 66 77 76 74 77 78 77 77 80 84 87 86 85 87 87 83 81 80 77 76 79 78 72 68 66 64 58 55 54 56 57 60 62 61 57 51 44 34 23 14 11 11 11 11
31 31 31 32 33 35 36 36 37 37 37 38 37 35 35 34 33 33 34 34 34 33 34 35 37 37 36 34 33 35 39 43 45 48 51 48 44 48 54 60 73 89 94 91 90 84 72 70 79 86 89 92 92 88 83 79 76 76 77 77 79 80 77 72 70 67 61 57 55 55 57 60 62 64 63 59 52 45 36 25 17 12 11 11 11
43 44 45 45 45 45 44 44 45 45 45 45 44 42 41 39 38 38 39 39 39 40 39 40 41 40 39 40 41 44 47 49 49 52 53 45 39 45 57 71 89 100 95 88 88 82 71 73 86 93 95 95 90 83 79 76 74 76 80 83 83 80 75 73 70 64 58 57 56 56 58 62 64 66 65 60 53 46 37 27 18 13 11 11 11
54 54 53 52 51 50 50 49 50 50 49 49 49 47 45 43 42 42 43 45 46 45 43 43 45 45 45 50 55 55 50 45 43 47 48 43 45 56 64 69 81 90 87 82 80 78 76 84 94 99 98 93 84 78 77 77 78 80 84 84 82 78 74 70 65 60 57 57 57 58 62 65 67 68 67 60 52 45 37 28 20 14 12 11 10
58 57 56 55 54 53 52 51 51 51 52 52 51 49 49 47 46 48 51 53 52 50 46 47 52 53 50 50 52 50 46 41 41 48 57 61 67 74 76 76 82 88 86 81 80 83 89 96 98 94 89 83 77 75 78 81 83 83 82 81 80 77 72 66 60 57 57 58 60 62 65 67 70 71 66 58 49 41 34 27 20 15 12 11 10
59 58 57 57 55 54 54 53 54 54 54 54 53 53 53 53 54 57 60 59 56 53 50 52 58 61 58 56 54 51 48 46 48 58 73 81 83 85 88 92 96 98 94 91 92 95 95 90 85 81 80 78 77 78 83 87 86 80 78 80 80 73 66 60 56 56 59 62 64 66 68 71 74 71 61 51 43 36 31 26 21 15 12 11 10
58 57 58 57 57 57 57 56 56 57 57 56 56 57 60 61 62 63 65 64 61 58 56 56 61 66 66 64 61 60 57 53 53 63 74 77 74 76 82 86 88 90 92 93 93 90 83 77 77 80 80 78 76 76 79 80 77 74 77 79 74 65 58 55 55 59 64 65 66 69 74 76 72 63 52 43 37 31 27 24 21 16 12 10 9
59 59 59 59 58 58 58 57 57 59 59 59 60 62 66 69 69 68 67 66 65 63 61 59 62 69 74 73 71 70 67 61 60 66 73 74 71 70 71 72 74 77 81 82 81 80 79 80 81 79 75 74 74 74 74 75 74 74 74 71 64 58 56 57 61 65 67 69 72 76 76 71 61 51 44 38 32 27 23 20 17 15 12 10 9
58 58 58 58 57 57 56 57 57 56 54 54 56 58 62 67 71 74 73 70 68 68 66 65 68 74 78 80 81 78 72 67 67 69 72 74 74 72 69 68 70 71 71 73 77 79 81 85 83 75 70 73 76 74 75 76 74 70 67 64 60 58 60 64 68 70 72 76 78 74 65 56 48 43 38 33 25 20 17 14 12 12 10 8 8
55 55 54 54 56 56 57 58 57 52 45 42 42 46 50 56 63 70 74 74 74 73 70 72 80 86 86 87 91 88 78 71 70 72 72 73 73 70 67 67 67 66 68 76 84 85 85 88 88 80 75 76 77 76 75 74 71 68 67 66 65 66 69 71 73 75 78 77 70 59 51 47 43 37 31 24 17 13 11 9 8 8 7 7 7
49 48 47 48 51 54 55 54 51 45 40 37 35 37 42 47 54 60 65 68 73 75 73 74 82 89 91 92 95 93 86 78 73 70 70 72 72 71 71 70 69 67 70 77 84 84 82 84 85 82 78 78 80 80 80 78 76 75 75 74 74 75 75 75 77 79 77 67 57 49 45 41 34 26 19 15 12 9 7 6 6 6 5 6 6
48 47 46 47 49 50 51 51 49 47 46 45 43 42 41 42 45 51 55 58 64 72 78 80 80 83 89 96 98 95 92 85 77 70 70 72 74 78 80 79 77 76 75 75 76 76 76 76 77 79 81 83 85 85 86 84 82 81 81 80 79 78 77 79 82 78 66 54 48 45 40 33 27 21 16 11 9 8 6 5 5 5 6 6 7
69 70 70 68 66 64 64 64 64 64 65 65 64 63 60 56 54 55 58 62 68 76 86 92 89 84 86 94 99 98 95 89 80 73 73 76 77 78 80 82 84 83 82 81 80 81 83 84 83 84 86 87 87 88 88 87 85 85 83 80 78 79 83 85 80 69 56 50 48 45 41 38 34 26 16 9 8 8 7 6 6 6 6 7 7
77 79 80 80 78 77 75 73 72 73 74 76 77 78 77 74 70 68 69 75 81 85 88 93 93 88 85 88 96 99 97 93 87 82 79 82 86 84 82 84 87 87 87 89 88 86 85 88 89 89 88 86 85 84 85 83 83 83 81 78 80 85 87 82 71 60 55 53 51 48 47 46 38 24 13 9 9 9 8 7 7 7 7 7 7
73 73 73 73 72 71 70 69 67 65 65 67 70 75 78 80 81 81 83 87 90 90 90 92 95 94 91 93 98 100 98 96 94 88 81 84 93 96 91 88 88 86 85 88 89 87 86 89 90 87 84 83 81 79 79 80 81 81 81 83 87 89 84 74 66 61 59 58 55 52 48 42 31 18 11 10 10 9 9 9 8 8 8 7 7
Wind_Speed
27 29 30 30 31 31 31 31 30 30 30 29 29 28 28 28 27 28 27 26 24 23 22 21 21 20 21 24 26 28 29 29 28 27 27 27 25 25 25 24 21 18 16 13 12 11 12 12 12 11 10 10 10 12 12 12 12 12 12 13 13 13 12 11 11 12 14 14 15 15 15 15 16 16 16 16 16 16 16 16 17 17 17 17 18
25 25 27 28 29 29 30 31 31 31 31 31 30 29 29 29 29 29 29 28 27 26 24 23 23 22 22 24 26 28 30 30 30 29 29 27 26 26 27 26 22 20 18 16 14 13 14 14 15 15 14 12 12 13 14 14 14 14 14 15 15 16 15 14 13 13 14 15 16 16 16 16 16 16 16 16 16 17 17 18 18 18 18 18 20
27 25 25 25 25 26 29 30 31 32 32 32 32 31 30 30 30 31 30 29 29 29 27 26 26 25 24 25 27 29 31 32 32 31 30 29 27 28 28 27 24 22 20 18 17 16 16 17 17 18 16 15 14 15 15 16 16 15 15 16 16 17 17 16 15 15 15 16 17 18 18 17 17 17 17 17 17 18 19 19 18 19 20 21 22
30 28 26 25 24 25 26 28 29 31 32 33 32 32 32 32 32 32 32 32 32 31 30 29 29 28 27 27 28 30 32 33 34 33 32 31 29 29 29 29 27 24 23 21 20 19 18 19 19 20 19 18 17 17 17 18 18 17 17 17 17 18 17 17 17 17 17 17 18 19 19 18 18 18 18 18 19 20 20 20 20 21 22 22 23
32 31 28 27 27 27 26 26 27 29 30 32 33 34 34 34 34 34 33 34 34 34 33 32 31 30 29 29 29 30 32 34 35 35 33 32 31 31 31 30 29 27 25 24 23 22 21 21 21 22 21 20 19 19 19 19 20 19 19 18 18 19 19 18 18 18 18 18 19 20 20 19 19 19 19 19 20 21 22 22 22 22 23 23 23
34 32 30 29 29 29 28 27 27 27 27 29 31 34 35 36 36 35 35 36 36 36 36 35 34 33 31 31 30 31 32 34 36 36 35 34 33 32 32 32 30 29 27 27 26 25 24 23 24 23 23 22 22 21 21 21 21 21 20 19 19 20 20 19 19 19 19 19 20 21 21 19 19 19 20 20 20 21 22 23 23 24 24 24 25
36 34 32 31 31 31 30 30 29 28 27 27 29 31 32 33 34 34 35 36 37 37 37 36 35 34 34 34 33 32 33 34 37 38 37 36 35 35 34 34 33 31 30 29 29 28 27 26 26 25 24 24 24 24 23 23 23 22 22 21 20 20 20 20 20 20 20 20 21 22 21 20 20 21 21 21 21 21 22 23 24 25 26 26 25
37 36 34 33 32 33 32 31 30 30 29 28 28 28 28 29 30 31 32 34 35 37 37 36 35 35 36 36 36 35 34 35 37 39 39 38 37 37 36 35 34 33 32 31 31 31 30 29 28 27 26 25 26 25 25 24 24 24 24 24 22 21 20 20 20 20 20 21 22 22 22 21 21 22 22 21 21 21 21 22 23 24 26 28 29
37 36 35 35 34 35 34 34 32 31 31 30 29 28 28 27 27 28 29 29 30 33 34 34 34 35 37 38 38 37 36 36 37 39 40 40 39 39 38 37 36 35 34 33 33 33 32 31 30 28 26 26 27 27 26 26 25 25 26 26 24 22 21 21 21 21 21 22 22 23 23 22 22 22 21 21 20 20 20 21 22 23 26 28 29
36 36 36 36 36 36 36 35 34 33 32 32 31 30 29 29 29 29 28 27 28 29 30 31 32 34 36 38 39 39 39 38 38 38 40 41 41 41 40 39 38 37 36 35 34 34 34 33 32 30 28 27 27 28 28 26 26 27 28 28 26 24 22 22 22 22 22 23 23 23 23 23 22 22 21 21 21 20 20 22 22 23 24 25 26
35 36 36 36 37 37 36 36 35 34 33 32 32 32 31 31 31 31 30 29 28 28 29 30 30 32 35 37 39 40 40 40 38 38 39 41 43 42 42 42 41 40 38 37 36 35 35 34 34 33 31 29 28 29 29 27 26 27 29 29 27 25 24 24 24 23 23 24 24 24 24 23 23 22 21 21 21 21 21 22 22 23 23 24 25
33 34 34 35 36 36 36 36 36 35 34 34 34 34 33 33 34 33 32 31 29 30 30 31 31 32 34 36 38 39 40 40 39 38 38 41 43 44 44 44 43 42 41 39 37 36 36 36 35 36 35 32 30 31 30 29 27 28 29 30 29 27 26 26 25 25 24 25 25 24 24 23 23 22 21 21 22 22 21 22 22 22 23 24 26
31 32 32 33 34 34 35 35 36 35 35 35 36 35 34 34 35 35 34 33 32 31 32 32 32 33 35 36 37 38 40 41 40 39 38 40 43 45 46 46 45 44 43 41 40 39 38 38 38 38 37 35 33 33 32 31 29 29 30 31 30 29 28 27 27 27 26 25 25 25 24 24 23 23 22 22 22 23 23 22 22 22 23 25 27
31 31 31 30 31 32 33 34 35 35 36 36 37 36 35 35 36 35 36 36 35 33 33 34 34 34 36 37 37 38 39 40 40 40 39 40 43 46 47 48 48 47 45 44 43 41 39 39 40 40 39 38 36 35 34 33 31 30 31 32 32 31 30 29 29 29 29 27 26 26 25 23 23 23 23 23 23 24 24 22 22 23 25 27 29
32 32 31 30 29 31 32 33 34 35 36 37 38 37 36 36 36 37 37 38 37 35 34 34 34 35 37 38 38 38 38 39 40 40 40 40 42 46 48 50 49 49 48 47 45 43 42 42 42 42 42 41 39 38 36 35 33 32 33 33 33 32 31 30 30 30 31 30 28 27 25 23 22 23 24 23 23 24 24 24 24 25 27 28 30
34 34 33 32 32 31 32 33 35 36 37 38 37 37 36 36 36 37 38 38 38 37 36 35 35 36 37 38 40 40 38 38 39 40 40 40 42 46 49 50 50 50 50 49 48 46 45 44 44 44 44 43 42 40 39 37 35 34 34 34 34 34 32 31 31 31 31 31 30 29 26 24 23 24 25 24 24 25 26 26 26 27 28 29 29
35 35 34 33 33 33 33 34 35 36 37 37 36 35 35 35 36 37 38 38 39 38 37 37 36 36 36 37 40 42 41 40 39 40 41 41 42 46 49 50 51 50 50 50 50 49 47 47 47 46 45 45 45 43 41 39 37 36 35 35 35 35 34 32 31 31 31 31 31 29 28 25 24 25 26 25 26 27 28 28 28 29 29 28 28
35 35 33 33 33 33 34 34 34 35 36 35 35 35 35 35 36 37 37 38 38 37 38 38 37 37 37 38 39 41 43 43 41 41 42 42 43 46 49 50 51 51 51 51 51 50 50 50 49 48 47 48 47 46 42 40 39 39 37 36 37 37 36 33 31 30 31 32 31 30 28 26 25 26 26 26 26 27 28 28 29 29 29 27 27
38 36 34 34 34 34 34 34 34 35 35 35 36 36 37 37 38 38 37 38 38 38 39 39 39 39 40 40 40 41 43 44 44 43 43 43 45 47 49 52 53 53 53 52 52 52 52 52 51 50 50 50 49 48 45 41 41 41 38 38 38 37 35 33 30 29 31 32 32 30 28 26 26 26 26 26 27 27 28 28 28 29 28 27 27
39 39 37 37 36 36 36 36 36 36 37 38 39 39 39 39 39 39 39 39 40 40 41 41 41 42 42 43 43 42 42 44 46 46 46 45 45 48 50 53 54 55 54 54 54 54 54 54 53 52 52 52 51 50 47 43 42 42 40 39 39 36 33 31 28 28 31 32 33 31 28 26 26 27 26 26 27 28 28 28 28 28 27 26 25
34 36 38 38 38 37 37 37 38 39 39 40 41 41 40 40 39 39 40 41 42 42 42 43 44 44 45 45 45 44 42 42 44 47 48 47 46 47 51 54 55 55 55 56 56 56 55 55 55 54 54 54 53 51 48 44 43 42 41 40 39 35 31 29 28 28 31 34 33 31 29 27 27 27 27 27 28 28 28 28 28 28 26 25 23
30 31 32 34 36 38 38 39 39 40 41 41 41 41 41 40 40 39 40 41 42 43 43 44 45 46 46 47 47 46 44 43 42 43 46 49 49 48 49 53 55 55 56 56 57 57 56 57 57 56 55 55 54 52 48 44 43 43 41 40 39 34 31 30 28 27 31 34 34 32 30 27 27 27 27 27 28 28 28 29 28 27 26 23 21
29 30 29 30 31 33 36 38 40 41 43 43 43 41 40 40 39 39 39 40 40 41 42 43 44 45 46 46 47 46 45 45 42 40 41 46 50 51 50 51 53 55 57 57 57 58 58 58 59 58 55 54 54 52 47 44 43 43 43 42 39 34 32 31 28 26 30 34 34 33 30 28 28 28 27 29 29 28 28 29 27 26 25 22 19
27 29 30 30 31 32 32 34 36 40 43 44 43 41 40 40 39 39 39 39 40 40 41 42 43 43 44 45 45 46 46 46 44 41 39 41 46 51 52 51 51 53 57 58 59 59 59 60 61 59 56 54 54 51 47 45 44 45 45 43 39 36 34 32 28 26 29 33 34 32 30 28 28 28 28 30 30 28 29 29 26 25 24 21 18
24 25 26 27 28 29 30 30 32 35 38 41 41 41 41 41 40 40 41 41 41 41 41 41 41 42 42 44 45 46 46 47 46 44 42 41 43 46 49 51 52 54 56 57 59 61 61 62 63 61 57 54 53 50 46 45 46 47 46 44 42 39 36 32 27 26 30 33 33 30 28 27 29 29 30 30 29 28 29 28 26 25 23 19 17
24 24 24 23 24 25 26 28 29 32 35 38 40 41 42 42 42 42 43 43 42 41 40 39 40 41 42 44 46 47 47 48 48 46 45 44 43 42 44 47 49 52 54 55 57 59 60 61 62 62 58 57 55 52 49 48 48 48 47 46 44 41 36 31 28 28 30 31 30 27 26 28 31 31 30 29 28 29 29 27 25 24 22 18 16
26 26 25 25 25 25 26 27 29 32 35 37 39 41 42 43 43 42 42 41 40 39 38 38 40 42 44 45 47 48 48 48 49 47 46 45 45 44 44 45 45 48 52 54 56 58 58 59 60 59 58 57 58 57 55 53 51 50 49 48 48 43 37 31 29 29 29 29 28 27 27 31 32 31 29 29 28 29 29 26 25 24 21 16 15
29 28 28 28 27 27 28 27 28 31 35 37 39 39 39 39 39 38 37 37 38 38 39 41 42 43 44 45 46 48 49 49 50 49 47 47 47 46 45 45 44 46 49 53 57 58 57 57 57 57 57 58 59 60 60 58 56 55 53 53 52 45 35 30 30 30 29 29 28 28 29 31 31 29 28 29 29 29 28 26 25 23 20 16 15
29 29 29 29 29 29 29 29 28 30 32 35 36 36 36 36 37 37 38 38 40 41 43 44 44 44 45 46 48 50 51 50 51 51 51 51 51 50 49 49 48 48 49 52 55 55 54 54 54 54 56 58 58 59 59 59 59 58 57 57 52 41 32 30 31 30 30 30 30 28 28 30 30 29 28 28 28 28 27 25 24 22 19 16 15
28 29 30 30 31 31 32 31 31 30 31 32 33 35 36 37 38 40 41 42 43 44 45 46 46 46 47 49 50 52 53 52 52 54 54 54 54 56 56 54 53 54 53 51 50 49 49 51 52 53 54 55 56 57 58 60 62 61 60 59 51 38 31 30 31 31 32 31 30 28 29 29 29 28 28 28 28 27 26 25 24 22 18 16 15
27 28 29 30 31 32 32 32 32 32 32 33 34 35 37 38 40 41 43 44 46 47 48 50 50 50 51 53 53 55 56 55 55 57 57 56 56 57 58 58 59 61 59 54 49 46 43 44 49 51 50 49 51 54 58 63 64 61 58 56 49 37 31 30 32 34 33 30 28 29 29 29 29 27 27 27 27 27 26 24 23 21 18 16 15
27 27 27 28 29 29 31 31 32 32 34 35 36 37 39 41 43 45 46 48 49 51 52 54 55 56 57 58 58 59 59 58 58 59 60 60 59 57 57 58 61 63 62 58 52 46 41 39 44 48 48 47 48 52 59 64 64 60 57 55 47 37 31 32 34 33 30 27 28 30 29 28 28 26 26 27 26 26 26 24 22 21 18 16 15
27 27 27 28 29 30 31 32 33 35 36 38 39 41 42 44 46 48 50 52 54 55 56 57 58 59 59 60 62 63 63 62 63 64 65 66 66 63 62 62 63 63 63 61 55 48 43 41 42 45 47 46 47 52 59 63 62 58 53 48 41 35 33 33 33 29 26 27 30 31 29 28 27 26 26 26 25 25 26 25 22 21 18 15 15
26 27 28 29 30 32 33 34 36 38 39 41 43 44 46 47 49 51 54 55 56 57 57 57 58 58 59 61 62 63 64 65 65 66 68 69 69 69 68 67 66 64 63 63 57 48 43 43 44 46 46 45 46 52 58 61 61 56 47 40 37 35 34 33 30 28 27 30 31 30 28 27 26 25 25 26 26 25 25 25 23 21 17 15 16
27 28 29 30 31 32 34 35 37 38 40 42 43 44 46 48 49 51 53 54 54 54 54 54 55 56 57 59 60 63 65 66 66 68 69 69 68 68 68 69 69 68 66 65 60 50 44 44 46 47 47 47 48 54 59 60 57 50 42 38 37 36 34 32 29 28 30 31 31 29 27 26 25 24 25 26 26 25 24 24 23 21 18 15 16
28 29 30 31 32 33 35 36 37 38 39 40 41 43 44 45 46 47 48 48 49 50 51 51 52 53 54 56 57 58 60 61 63 65 66 66 66 65 65 67 70 69 66 64 59 49 44 45 46 47 50 51 52 56 58 54 45 38 35 35 34 34 33 31 29 30 31 31 30 28 26 25 25 25 25 26 26 24 23 23 23 22 19 16 17
27 28 29 30 31 32 32 33 33 34 35 35 36 38 38 39 40 40 41 42 43 44 45 45 46 46 46 48 50 49 49 51 53 52 52 55 59 61 62 64 65 65 64 62 55 46 42 44 46 49 52 53 52 53 53 47 38 33 33 32 31 31 31 30 29 30 30 29 28 26 25 24 25 25 25 26 26 24 22 23 23 23 20 17 17
25 26 26 27 27 27 27 27 28 28 28 29 30 31 32 33 34 34 35 36 36 37 38 38 37 37 37 39 41 40 38 39 38 34 34 38 44 51 56 58 61 63 60 55 49 43 41 43 46 48 49 50 49 48 45 40 36 34 33 31 30 30 29 29 29 29 29 28 27 26 24 25 26 26 25 26 26 24 23 23 24 23 21 18 18
22 22 22 22 22 22 23 23 23 23 23 23 25 26 28 29 29 30 30 31 30 31 31 30 29 29 29 30 31 29 29 30 30 30 32 35 35 37 42 45 50 54 51 43 41 43 44 44 44 45 46 47 47 44 39 36 34 33 32 31 30 29 28 28 29 29 29 28 27 25 25 26 27 27 26 26 25 24 24 24 24 23 21 20 20
19 19 19 19 19 19 19 19 19 20 20 21 22 24 25 26 27 27 27 26 25 24 24 23 23 22 20 19 20 20 21 24 27 29 32 30 21 16 21 25 29 34 33 30 34 40 41 41 43 46 46 43 39 36 34 32 32 31 30 29 28 27 27 27 28 28 28 27 25 25 26 27 27 27 26 25 25 25 25 24 24 24 22 21 21
17 17 17 17 17 18 18 19 19 20 20 20 21 21 22 23 24 24 23 21 18 17 17 18 17 17 15 14 14 14 15 19 21 21 21 16 8 1 10 21 28 31 30 31 36 40 40 41 43 41 36 32 31 31 31 31 32 30 28 27 27 27 28 28 28 27 27 26 26 26 27 27 27 27 26 26 26 25 25 25 25 24 23 22 22
16 16 16 16 17 18 18 19 20 21 21 20 20 20 20 20 21 20 19 16 14 14 14 14 14 15 16 16 15 15 16 19 20 17 15 15 15 10 2 14 25 32 35 37 39 38 36 34 30 25 24 26 27 27 29 31 30 26 25 27 28 28 28 28 28 27 26 26 26 27 27 27 27 27 26 26 25 25 25 26 25 24 23 23 23
16 16 16 16 17 18 19 20 20 20 20 20 19 18 18 18 19 18 17 15 13 13 13 13 14 15 17 18 18 17 18 20 17 13 11 12 13 11 6 3 6 10 15 18 19 19 19 19 19 19 21 22 23 24 27 28 27 26 27 28 29 28 28 29 28 27 26 26 26 26 27 27 27 27 26 26 25 25 26 27 26 25 24 23 23
16 16 17 17 18 18 19 19 19 18 18 17 17 16 16 17 17 17 16 14 13 12 13 14 16 16 15 15 15 16 17 16 12 9 8 9 8 6 4 2 2 3 2 5 8 11 15 17 17 18 20 21 22 24 25 26 26 26 27 27 27 28 29 29 27 26 25 26 26 26 27 27 27 26 25 25 24 25 27 27 26 25 24 23 23
15 16 16 17 17 18 18 18 17 16 15 15 15 16 17 17 18 17 17 16 15 14 13 14 16 16 14 12 11 11 11 9 6 4 3 2 1 1 1 1 2 3 5 8 10 12 16 19 20 19 20 23 24 24 23 25 25 25 26 26 27 28 28 27 26 25 25 26 26 26 26 26 25 24 24 25 25 26 27 28 27 25 24 23 23
14 14 15 15 16 16 16 16 16 15 15 15 15 16 17 17 17 17 17 17 16 15 13 13 15 16 14 10 8 7 6 6 7 8 7 7 7 7 7 8 9 10 12 15 17 16 18 24 25 21 20 22 24 23 24 25 25 26 27 28 28 28 27 27 26 26 25 25 26 25 24 24 24 24 24 25 26 26 27 28 27 25 24 23 23
13 13 13 14 14 15 15 15 15 15 15 16 16 17 17 17 17 17 17 17 17 16 14 14 15 16 14 11 9 8 8 9 10 11 11 11 10 10 10 12 13 14 16 18 19 18 19 23 24 21 19 21 22 22 23 25 26 27 28 28 28 27 27 27 26 25 24 24 24 23 23 23 23 23 24 25 26 27 27 27 26 25 23 23 23
10 10 11 11 12 13 13 13 14 14 15 16 17 17 18 18 18 18 18 18 17 16 15 14 14 14 15 14 12 10 11 11 11 12 12 11 11 11 12 12 14 15 15 16 17 17 17 18 19 19 20 21 22 23 24 25 26 27 27 27 27 27 26 25 24 23 23 22 21 21 22 22 22 23 24 25 25 26 26 25 25 24 23 22 22
5 6 7 7 8 9 10 11 11 12 12 13 14 15 16 17 18 18 18 18 16 15 14 14 14 13 15 16 14 13 13 13 13 13 13 13 13 12 13 14 15 15 16 16 17 17 17 17 18 19 21 22 23 24 25 26 26 26 26 26 26 24 23 23 23 22 22 21 20 21 21 22 22 23 24 24 24 24 24 24 24 23 22 22 22
4 4 5 6 7 8 8 9 9 10 10 11 11 12 12 13 15 16 16 15 13 13 14 15 15 15 16 17 17 17 16 15 15 14 13 14 14 14 14 16 17 16 17 18 18 18 18 19 20 21 22 22 23 24 25 25 25 25 25 24 23 22 22 22 22 21 21 21 21 22 22 23 23 23 22 22 22 22 22 22 22 22 22 22 22
5 5 6 6 7 8 8 8 9 9 10 10 10 10 9 9 9 10 12 12 12 11 12 14 15 16 16 16 18 19 18 16 15 15 14 13 13 14 18 21 21 19 18 19 19 19 20 20 21 22 22 23 23 24 24 23 23 24 23 23 22 22 22 22 22 22 22 23 23 23 23 23 22 22 21 21 21 21 21 21 21 21 22 22 22
Wind_Direction
223 224 225 227 229 230 231 231 230 230 230 231 231 230 230 230 232 236 239 241 242 245 246 247 250 250 245 241 238 235 231 226 223 223 226 229 229 226 220 216 214 213 214 219 224 233 243 252 262 270 279 291 301 307 310 312 315 319 324 328 328 323 317 312 310 307 302 298 298 299 301 299 293 288 285 283 282 283 284 286 288 291 293 295 297
225 224 224 226 228 229 231 231 232 233 233 233 233 233 233 233 234 236 239 241 242 245 246 246 248 249 246 244 240 237 233 228 225 224 227 229 228 225 222 219 219 219 221 226 230 237 246 253 262 268 273 279 289 297 302 305 307 311 318 324 326 326 322 315 310 309 305 300 299 300 301 300 298 294 289 285 282 282 283 286 289 292 294 297 299
227 227 227 227 227 229 231 232 233 233 234 235 235 236 237 237 237 238 240 242 242 244 246 246 247 247 246 244 241 238 234 230 226 225 228 229 227 225 224 223 224 226 228 232 235 241 248 254 260 265 270 275 280 288 294 299 301 304 311 317 319 321 321 315 309 306 304 302 299 299 300 300 298 296 292 288 284 283 284 287 288 290 293 296 299
228 229 229 229 228 230 231 232 234 235 236 238 238 239 240 241 241 241 242 243 244 245 245 246 248 248 247 245 243 239 235 232 228 227 228 230 229 227 226 227 229 230 232 235 239 243 249 254 259 263 266 271 276 281 287 291 295 298 303 308 310 312 314 313 307 301 300 300 297 295 296 297 297 295 291 288 286 285 286 286 287 289 292 295 299
228 228 229 230 231 231 231 231 234 235 236 239 241 242 243 243 244 243 243 244 246 246 246 246 249 250 249 248 246 242 238 234 231 229 229 230 230 229 229 230 232 234 235 238 241 245 249 253 258 261 264 268 273 278 282 285 288 292 297 301 303 304 306 307 305 299 295 296 296 294 293 294 295 294 291 288 287 287 288 289 290 292 293 297 300
229 228 226 227 230 232 232 232 233 234 235 237 239 241 242 243 244 244 243 244 246 247 248 247 249 250 250 250 249 246 242 238 234 231 229 230 231 231 231 232 234 235 237 239 242 245 249 253 257 261 264 267 271 275 278 281 283 287 292 296 298 300 301 301 300 298 293 291 292 293 291 291 291 291 291 290 288 287 288 290 291 292 292 295 297
227 228 225 225 227 229 231 231 232 233 233 234 237 239 240 241 243 243 243 243 245 247 249 249 249 250 250 250 249 248 245 241 237 233 231 231 232 232 233 234 235 237 238 240 242 245 248 252 257 262 264 266 270 274 277 280 282 285 288 293 295 297 297 296 295 294 292 289 288 290 290 289 289 289 289 289 288 287 287 289 291 292 293 294 295
225 226 225 224 226 227 228 229 230 230 232 233 234 237 238 239 241 243 243 242 244 246 249 250 250 249 249 249 249 248 246 242 239 236 233 233 234 234 234 235 237 238 240 240 242 245 247 250 255 261 264 266 270 274 277 280 284 285 286 290 292 294 296 295 292 292 291 288 285 287 289 289 290 290 289 289 290 290 288 287 288 289 292 295 296
223 225 226 226 227 227 226 228 228 227 228 230 231 233 236 238 239 242 244 243 243 245 248 249 248 247 247 247 247 247 246 243 241 238 236 235 235 235 236 237 238 240 241 242 243 246 249 251 255 259 264 267 270 274 277 281 286 288 288 290 292 293 295 296 294 294 294 290 285 284 286 288 290 290 290 291 291 289 286 284 284 286 289 293 297
222 224 228 229 229 228 226 227 227 226 226 228 231 232 234 237 239 241 243 244 244 245 248 248 247 245 245 245 245 246 245 243 241 240 238 237 236 237 237 239 240 241 243 244 245 247 251 254 256 259 262 265 268 272 276 281 287 289 290 291 292 292 294 296 296 296 296 294 289 284 284 285 286 288 290 291 289 286 285 285 287 288 290 293 296
224 226 230 231 230 229 228 227 227 227 227 229 232 233 234 237 240 242 242 243 244 245 247 248 247 245 245 245 245 245 246 245 243 242 241 239 238 238 238 239 241 242 244 245 246 248 252 255 258 260 261 262 264 269 275 279 284 288 290 291 290 290 291 293 294 295 295 293 291 287 283 282 284 287 289 287 284 282 282 285 288 291 292 294 297
227 229 231 232 232 231 230 229 229 229 230 231 233 235 235 237 241 244 244 243 244 245 247 249 249 248 247 247 247 246 246 246 245 243 242 241 240 240 240 241 241 242 244 246 247 248 251 254 258 260 262 262 262 266 271 275 280 284 286 287 287 286 288 290 291 292 291 291 291 288 283 280 281 284 283 280 280 280 280 284 288 290 292 295 300
227 229 231 233 234 233 231 230 231 232 232 234 236 236 237 238 242 246 248 247 245 246 248 250 250 250 250 249 249 248 247 247 246 244 242 241 240 240 241 242 243 244 245 246 247 248 250 253 256 260 263 262 260 263 267 271 275 278 279 282 285 285 286 288 289 290 290 288 288 288 283 278 279 281 280 276 275 277 278 281 284 288 293 298 302
227 229 231 234 237 235 233 232 233 233 234 236 237 239 239 240 243 247 249 250 249 248 249 250 250 251 252 252 251 250 249 249 248 246 243 241 241 241 241 242 243 244 245 246 247 248 249 252 255 259 262 261 260 261 265 268 272 273 273 277 282 282 282 285 287 289 290 288 287 286 282 275 277 282 282 278 275 274 276 278 284 291 297 301 302
227 229 232 234 237 238 237 236 235 234 236 238 240 242 242 243 245 247 249 251 252 252 251 251 252 252 253 254 254 253 253 251 250 248 244 242 241 241 242 242 243 244 245 246 247 248 249 251 254 257 259 260 259 260 263 266 268 269 268 271 276 278 279 282 285 287 288 287 286 284 278 272 275 280 279 277 275 276 278 281 287 293 297 300 301
225 228 231 232 235 238 238 238 236 236 237 240 243 245 245 246 247 248 249 251 253 253 253 253 253 253 254 255 256 257 256 254 253 251 246 242 241 242 242 243 245 246 246 246 247 248 249 250 253 256 258 259 259 258 260 264 265 265 265 267 271 274 276 279 283 284 285 286 286 284 277 272 273 275 275 275 276 278 281 284 288 292 295 297 300
224 226 229 231 233 236 237 236 236 236 238 241 244 246 246 246 245 246 248 250 252 254 256 255 254 255 256 256 256 257 258 256 255 254 250 243 240 241 243 245 246 247 247 247 248 249 250 251 252 254 256 257 258 257 259 261 263 264 264 264 266 270 273 276 280 283 284 285 286 283 277 271 270 272 274 275 278 280 282 285 288 290 292 295 297
226 224 225 227 228 230 232 234 235 236 237 240 242 243 243 243 242 242 245 248 251 254 255 254 255 257 258 257 256 257 258 258 257 255 252 246 241 241 244 246 247 248 248 248 249 250 251 251 252 253 254 255 256 257 257 258 260 263 264 262 263 266 269 274 280 284 285 285 285 282 277 271 269 271 274 276 279 281 283 285 288 289 292 295 297
225 223 222 223 225 228 230 233 235 236 238 239 238 237 236 236 237 238 240 243 246 248 249 252 254 257 258 258 257 256 256 256 256 256 254 249 244 241 243 245 247 248 249 249 249 250 250 251 251 251 252 253 254 255 256 255 257 261 263 263 262 263 267 273 281 286 286 285 284 281 276 271 269 271 273 276 278 280 282 284 286 288 293 296 296
221 222 223 224 226 228 230 232 234 236 238 238 236 234 233 234 236 237 238 239 241 243 246 249 252 254 256 258 258 257 255 254 254 255 255 252 247 243 242 245 247 249 249 249 250 250 250 250 251 251 250 252 253 254 254 254 255 258 262 262 261 261 265 272 281 284 283 282 282 279 275 270 268 269 271 274 277 279 281 283 285 288 293 294 295
222 222 223 224 226 228 230 232 235 236 236 236 236 235 234 235 236 237 238 239 241 243 244 246 249 251 254 256 258 259 258 256 253 253 254 254 251 246 244 245 247 249 250 250 251 251 250 251 252 251 250 251 253 253 253 253 253 256 260 261 259 258 261 269 275 277 277 278 279 277 272 267 265 266 269 272 275 278 280 282 285 288 292 292 293
227 227 226 226 227 229 231 233 235 237 238 239 239 238 236 236 237 239 241 242 244 245 245 246 248 250 252 255 257 259 261 261 258 254 253 253 253 251 247 246 247 248 249 250 252 253 252 251 251 251 251 251 252 253 253 251 251 254 257 257 255 253 256 262 267 270 272 274 276 273 268 264 263 264 268 272 274 277 279 281 284 288 289 290 293
236 236 237 237 237 237 237 238 239 239 240 241 241 239 238 238 240 242 243 244 244 245 245 246 248 250 252 255 258 260 262 262 262 259 254 253 253 254 251 249 248 248 249 250 251 253 252 251 251 251 251 250 251 252 251 250 250 252 254 253 250 249 251 256 262 267 267 269 271 268 265 263 262 263 267 271 273 276 278 280 283 286 287 289 293
243 243 244 246 248 250 250 249 247 244 242 241 241 240 238 239 241 243 243 243 243 244 245 246 248 251 254 257 259 261 263 264 264 264 260 256 254 254 255 253 251 250 249 249 250 250 250 250 250 251 250 249 250 251 250 248 248 249 250 249 246 245 246 251 259 263 262 263 264 263 262 261 260 262 265 269 273 276 277 278 282 285 285 288 294
249 248 248 249 251 254 256 256 254 250 246 243 242 241 239 239 240 241 240 240 242 243 245 247 250 253 256 259 261 263 264 264 265 265 264 261 259 257 257 257 256 255 254 252 251 250 250 250 251 251 250 249 250 251 249 246 245 245 245 245 243 242 245 250 256 257 255 255 257 258 260 259 257 259 263 268 272 275 275 277 282 283 283 287 294
249 250 251 253 254 256 257 257 256 254 250 247 244 242 240 240 240 239 238 240 243 246 249 252 255 258 260 263 264 264 263 262 264 264 263 262 262 261 261 260 260 259 258 256 254 251 251 251 252 252 251 249 250 251 249 245 242 241 241 241 240 242 247 251 251 249 249 251 252 255 257 255 253 256 263 268 271 272 273 277 281 281 282 287 294
245 247 249 251 253 254 256 255 254 252 249 247 245 244 243 241 240 239 240 244 248 252 256 259 262 264 266 266 265 263 261 261 263 263 262 262 263 262 262 263 262 260 259 259 256 253 251 251 251 252 251 249 249 250 248 244 240 240 241 241 240 241 245 245 242 242 244 246 248 251 252 250 250 256 263 266 267 269 272 277 279 279 281 287 293
243 244 246 248 250 252 254 255 253 250 248 246 245 244 244 243 244 245 248 252 256 259 262 265 267 268 269 267 265 263 261 262 262 262 262 263 263 261 261 263 262 261 261 262 258 254 251 250 249 249 248 246 246 247 246 243 242 243 244 242 239 237 236 234 234 236 238 241 244 247 248 248 250 256 261 262 265 268 272 276 278 278 280 286 291
241 243 245 248 250 253 255 256 256 253 250 248 247 247 248 250 252 253 255 258 261 264 266 268 269 270 270 269 268 267 265 265 264 264 264 264 263 263 263 262 261 259 258 258 257 253 248 246 246 247 247 246 246 245 242 239 240 242 242 240 236 232 228 229 232 233 234 239 243 244 243 244 248 254 258 260 264 268 271 275 276 275 277 283 288
244 245 247 249 252 255 257 258 258 257 255 253 252 251 252 254 256 258 260 263 265 267 268 270 271 272 272 272 272 272 272 271 269 267 266 265 263 262 261 259 258 256 253 255 260 261 254 248 246 246 246 246 247 245 241 236 234 236 240 240 237 230 227 229 231 230 233 239 241 239 237 241 247 252 256 259 263 267 271 274 273 271 274 279 284
247 248 250 251 253 255 257 257 258 259 259 260 260 259 259 259 261 263 265 267 269 270 271 271 272 272 272 273 273 272 272 272 271 269 268 267 264 263 261 258 256 253 249 250 258 264 260 252 246 244 243 244 246 245 242 236 231 232 239 242 237 228 225 227 227 228 232 235 234 233 235 240 246 250 254 258 263 267 271 272 269 268 271 275 280
247 249 250 252 253 255 256 258 260 261 263 264 264 265 265 265 266 266 268 269 270 271 271 271 271 271 271 271 271 271 271 271 271 270 270 268 267 266 264 261 258 255 252 250 253 258 258 249 243 240 240 241 243 242 239 233 228 228 235 238 233 224 221 224 226 228 227 225 227 231 235 240 245 248 253 258 263 267 270 269 266 266 268 272 277
248 249 251 253 255 256 258 260 261 263 264 264 265 265 265 265 266 266 267 267 268 268 268 269 269 269 269 270 271 272 273 273 273 273 272 271 270 268 266 264 262 259 255 252 250 253 252 245 239 238 238 238 239 239 236 231 227 226 228 230 228 223 220 221 224 225 221 219 224 230 234 238 243 247 253 259 263 266 269 268 265 264 266 270 274
250 252 254 256 257 258 259 260 261 261 262 262 262 262 263 263 264 264 265 265 266 267 269 270 272 273 274 274 275 276 275 275 274 274 273 272 271 270 268 266 264 261 258 254 250 249 248 242 238 237 236 233 233 235 235 232 228 225 222 221 223 223 220 219 220 217 215 218 225 230 233 238 243 248 254 259 262 263 266 268 266 265 266 269 273
254 255 257 258 259 260 260 260 261 262 262 262 263 264 264 265 266 267 268 270 271 273 275 276 278 278 278 278 278 278 278 278 278 276 275 274 273 271 269 266 264 262 259 255 251 249 246 240 235 233 231 227 226 229 232 229 225 220 216 215 216 216 215 217 216 212 213 219 225 230 234 239 244 250 255 259 262 263 265 267 267 266 266 267 270
255 256 258 259 259 260 260 261 262 262 263 265 266 267 268 269 270 271 273 274 275 277 277 278 278 278 278 279 279 279 279 279 279 277 276 275 273 270 266 263 261 259 256 255 253 249 240 234 232 230 227 224 223 226 228 224 217 212 211 212 213 212 212 214 212 210 212 219 226 231 235 240 246 252 256 259 262 264 265 266 265 264 264 264 267
255 256 257 257 258 259 261 262 264 265 266 268 268 268 269 270 270 272 273 273 274 275 277 278 279 280 280 280 280 280 281 280 278 278 278 275 271 269 266 263 259 255 251 249 248 240 228 226 228 227 223 221 221 222 221 215 208 206 210 213 212 210 210 210 209 209 214 220 226 231 237 243 248 252 255 259 263 265 266 266 263 261 261 262 265
251 253 254 256 259 261 263 265 266 267 267 267 267 268 268 269 269 271 272 273 275 277 278 281 282 282 282 282 283 285 285 282 281 286 291 287 279 271 266 262 259 255 250 247 243 234 224 223 226 224 220 218 216 213 212 214 213 212 211 211 208 205 206 208 208 210 216 221 227 233 239 244 249 252 254 259 263 265 266 265 261 259 259 261 263
248 252 256 259 261 263 263 264 265 266 267 268 268 269 270 271 272 274 275 277 280 281 283 285 285 285 287 288 287 285 282 281 284 290 296 301 295 276 262 259 260 261 259 250 236 224 218 219 221 216 210 208 207 208 215 223 220 210 204 203 204 203 205 206 206 209 217 223 229 237 241 245 250 254 256 259 263 264 264 263 260 258 258 259 261
253 257 258 259 259 259 261 263 266 268 271 273 274 275 276 276 278 279 280 283 284 284 284 286 289 295 297 292 287 284 284 289 294 294 297 306 308 276 256 259 262 262 259 244 221 213 214 216 210 202 199 200 206 217 226 222 210 202 200 202 204 205 206 206 207 212 220 227 233 239 243 246 251 256 259 261 262 263 264 263 259 256 256 258 260
254 255 255 256 258 259 262 267 271 275 278 279 279 281 282 281 281 282 283 285 286 286 287 291 301 314 317 309 304 309 314 318 322 322 323 337 12 104 254 259 248 239 232 220 207 203 203 201 195 193 198 209 220 229 224 208 198 200 203 203 204 206 207 208 211 217 224 230 236 241 244 248 253 257 260 260 260 262 264 263 258 254 253 255 259
249 252 253 256 260 262 267 272 276 280 283 283 284 285 284 280 279 280 281 284 287 290 294 303 316 326 329 329 332 340 344 344 346 350 1 24 47 56 294 239 224 214 207 200 193 188 187 188 191 200 215 222 222 218 206 195 194 200 202 202 204 206 207 210 216 222 227 233 239 243 247 251 255 258 259 258 259 262 264 262 258 254 251 252 256
249 251 255 260 265 270 275 279 282 285 286 286 287 287 281 275 274 276 279 284 291 295 298 306 316 324 330 334 337 341 346 348 351 354 1 13 25 36 55 131 179 189 185 179 174 175 184 196 206 213 213 209 205 201 196 194 196 199 200 202 204 206 210 217 222 226 232 238 242 246 250 254 256 257 257 258 260 262 262 260 256 252 250 251 254
257 261 266 270 274 277 280 282 284 286 286 286 286 284 279 274 274 276 279 284 289 293 298 305 311 318 326 331 334 339 344 345 347 349 349 348 353 3 12 360 304 280 214 167 171 193 206 207 202 196 192 189 188 190 192 194 196 197 200 204 207 211 217 224 228 231 237 242 246 250 253 255 256 256 257 259 261 261 260 258 253 249 248 250 252
267 270 272 273 274 276 278 281 284 284 283 283 283 282 280 278 278 279 281 283 285 288 296 304 306 307 311 316 322 331 335 330 320 323 339 344 353 28 10 244 204 195 181 173 176 190 194 187 179 177 181 182 184 186 188 191 195 199 203 209 213 218 224 229 233 236 241 245 249 252 254 254 255 256 257 259 260 258 257 255 251 246 245 247 250
269 269 267 266 267 269 272 275 278 279 279 278 278 278 279 279 279 279 281 282 284 287 292 297 295 290 289 293 296 292 287 283 273 258 241 224 212 206 199 189 180 174 173 173 175 179 179 175 175 179 182 180 181 185 188 191 197 204 209 213 218 223 227 232 236 240 243 247 251 253 253 254 255 256 257 258 259 257 254 252 248 245 243 244 247
265 264 262 261 262 263 265 267 270 273 275 276 276 275 275 276 278 281 282 283 284 285 285 287 285 276 270 276 281 267 253 256 256 244 233 225 218 208 194 181 175 173 172 173 175 177 177 178 183 190 190 186 189 194 197 201 206 211 215 219 223 227 231 235 239 243 246 248 250 252 253 255 257 258 258 257 257 255 252 249 246 243 242 242 245
267 266 265 265 266 267 268 268 270 271 274 275 275 274 273 272 274 277 279 279 279 277 275 278 277 266 260 266 269 253 242 244 238 224 217 215 209 203 196 187 181 176 174 175 179 182 184 186 190 194 196 197 201 205 206 210 215 218 221 225 229 231 236 240 243 245 247 248 249 253 256 258 259 261 260 258 255 254 252 249 245 242 241 241 243
268 265 264 267 270 272 275 278 280 280 281 280 279 278 277 274 273 275 277 276 273 268 265 266 266 260 259 259 252 240 234 232 222 212 210 208 203 199 197 193 187 181 177 178 182 186 188 189 193 198 202 205 208 210 212 217 221 223 226 230 233 236 240 244 246 247 249 250 251 253 256 259 261 261 259 257 256 254 252 249 246 243 242 242 244
277 273 270 271 273 275 277 280 283 284 285 286 286 287 286 284 278 275 273 271 267 263 262 260 259 260 261 255 240 227 221 217 212 207 204 203 201 199 195 192 191 188 184 184 187 192 194 195 198 203 207 210 213 216 219 222 224 227 231 234 238 241 244 247 248 249 249 250 252 253 256 259 260 258 256 255 254 253 251 250 248 247 246 246 247
293 293 293 293 293 294 293 293 293 294 294 295 295 295 297 297 290 278 274 275 276 272 266 260 253 248 245 238 224 211 205 204 204 202 202 206 205 194 187 189 191 191 190 191 193 196 201 205 207 211 214 217 219 222 224 226 229 232 235 238 241 244 246 247 248 249 250 251 253 255 256 257 257 255 254 255 255 254 254 253 251 249 249 249 250